Overview Statistics Trail Chart Weather Telemetry Raw packets
 

This is the latest recevied weather packets stored in our database for station/object WX0ABE-13. If no packets are shown the sender has not sent any weather packets the latest 10 day(s).

<< 36 37 38 39 40 41 42 >>
Time Temp. Humidity Pressure Rain* Wind** Luminosity Snow
1788103330 20.56° C 71% 1016.4 hPa 0 mm - 345 W/m² -
1788103025 20° C 72% 1016.1 hPa 0 mm - 312 W/m² -
1788102724 20° C 73% 1016.2 hPa 0 mm - 279 W/m² -
1788102420 19.44° C 75% 1016.2 hPa 0 mm - 188 W/m² -
1788102114 18.89° C 76% 1016.2 hPa 0 mm - 185 W/m² -
1788101814 19.44° C 75% 1016.4 hPa 0 mm - 149 W/m² -
1788101509 18.89° C 76% 1016.4 hPa 0 mm - 127 W/m² -
1788101204 18.89° C 76% 1016.1 hPa 0 mm - 127 W/m² -
1788100900 18.89° C 76% 1016.3 hPa 0 mm - 102 W/m² -
1788100597 18.33° C 76% 1016.4 hPa 0 mm - 91 W/m² -
1788100294 18.33° C 76% 1016.4 hPa 0 mm - 104 W/m² -
1788099990 18.33° C 75% 1016.5 hPa 0 mm - 114 W/m² -
1788099690 18.33° C 77% 1016.4 hPa 0 mm - 106 W/m² -
1788099385 17.78° C 77% 1016.6 hPa 0 mm - 98 W/m² -
1788099080 17.78° C 78% 1016.4 hPa 0 mm - 109 W/m² -
1788098776 17.22° C 80% 1016.5 hPa 0 mm - 135 W/m² -
1788098476 16.67° C 82% 1016.5 hPa 0 mm - 130 W/m² -
1788098176 16.67° C 82% 1016.7 hPa 0 mm - 117 W/m² -
1788097871 16.67° C 83% 1016.4 hPa 0 mm - 107 W/m² -
1788097567 16.11° C 83% 1016.4 hPa 0 mm - 97 W/m² -
1788097262 16.11° C 82% 1016.6 hPa 0 mm - 83 W/m² -
1788096957 16.11° C 83% 1016.6 hPa 0 mm - 70 W/m² -
1788096652 16.11° C 83% 1016.3 hPa 0 mm - 58 W/m² -
1788096348 16.11° C 83% 1016.3 hPa 0 mm - 54 W/m² -
1788096043 16.11° C 83% 1016.4 hPa 0 mm - 61 W/m² -

* Rain latest hour (hover to see other rain measurements)
** Current wind speed in m/s (hover to see current wind gust speed)